Theta_e
321 320 321 321 322 325 323 322 320 319 322 322 317 317 322 327 319 312 329 341 325 326 341 338 340 346 339 339 337 332 338 344 344 344 347 348 347 347 350 350 350 351 349 349 349 348 346 343 342 342 343 343 344 345 345 346 347 348 350 351 352 353 353 354 354 354 354 354 354 355 355 355 356 356 356 356 356 355 355 355 355 355 354 353 353 353 352
321 320 321 323 322 323 322 322 321 319 321 321 319 322 324 325 321 320 333 340 330 329 336 335 338 342 337 338 338 333 336 341 341 341 345 347 345 343 347 348 348 348 349 349 349 349 349 347 343 342 343 344 345 345 346 346 347 348 349 351 353 353 354 354 354 355 355 355 355 355 355 355 356 356 356 356 356 356 356 355 355 355 355 354 353 353 352
322 320 321 322 320 322 323 322 322 320 319 320 319 320 323 324 323 322 329 334 332 333 338 337 333 332 331 335 338 339 343 345 342 340 340 342 344 343 344 346 346 347 348 349 350 350 350 348 344 342 343 344 345 345 346 347 347 348 350 351 353 353 354 354 354 355 355 355 356 356 356 356 356 356 356 356 356 356 356 356 356 355 355 355 354 353 353
323 321 321 320 319 322 323 321 323 322 318 319 319 320 324 323 323 324 324 323 327 334 340 336 331 332 334 335 341 349 357 358 354 351 351 351 350 348 346 345 347 347 347 348 349 349 348 345 343 343 344 344 345 346 347 347 348 349 350 351 353 353 354 354 355 355 356 356 357 357 356 357 356 356 356 356 356 357 357 357 356 356 355 355 354 354 353
327 322 318 320 322 323 320 318 323 323 320 321 319 321 326 325 323 323 320 320 327 334 337 334 331 331 332 335 343 352 367 378 368 359 359 358 351 349 348 349 348 346 345 346 347 347 346 344 343 343 344 344 345 346 346 348 348 349 351 352 352 353 354 355 355 356 356 356 357 357 357 357 357 357 357 357 357 357 357 357 357 356 356 356 355 354 353
329 323 319 323 327 325 321 320 323 324 323 323 321 321 324 325 325 325 323 326 330 331 334 332 328 329 334 347 355 354 363 378 373 363 360 361 358 354 351 350 348 347 346 346 346 344 344 344 343 344 344 345 346 347 347 348 349 350 351 352 353 354 354 355 356 356 356 357 357 357 358 357 358 358 357 357 357 357 357 357 357 357 356 356 355 355 354
328 326 325 329 331 327 323 322 325 329 326 319 321 324 325 325 324 323 327 330 328 331 331 325 336 358 364 363 363 356 353 358 363 364 365 368 370 368 360 354 353 353 354 353 350 344 341 343 344 344 345 345 346 347 348 349 350 351 352 353 353 354 355 355 356 356 357 357 357 358 358 358 358 358 358 358 358 357 358 357 357 357 357 356 356 355 354
328 329 330 332 330 326 324 326 334 340 343 336 329 323 319 327 330 325 326 330 330 332 328 328 355 378 369 360 360 359 356 353 352 357 362 362 363 363 360 359 359 357 353 349 348 344 340 342 344 344 345 346 347 348 349 349 351 351 352 353 354 355 356 356 357 357 357 358 358 358 358 358 358 358 358 358 358 358 358 358 358 358 357 357 357 355 355
326 328 329 330 327 325 331 340 343 344 346 345 340 333 329 340 347 334 324 328 334 333 332 343 360 363 358 358 356 352 354 353 349 352 354 351 353 354 352 352 353 350 345 340 339 340 340 342 344 345 346 346 347 349 350 350 351 352 352 354 354 355 356 357 358 357 358 358 358 358 358 359 358 359 359 359 359 359 358 358 358 358 357 358 357 356 356
326 326 326 328 329 330 338 342 339 338 338 339 340 337 337 348 359 345 324 323 339 344 346 354 357 352 352 359 355 349 351 351 347 349 350 347 349 349 347 349 350 347 346 343 339 340 341 342 343 344 346 347 348 349 350 351 352 352 353 354 354 355 356 357 358 358 358 359 359 359 359 359 359 359 359 359 359 359 359 358 358 358 358 358 357 357 356
325 324 325 327 327 331 339 340 337 336 336 337 337 334 331 342 361 356 338 326 336 347 354 355 353 345 346 358 359 353 349 348 347 348 348 346 346 345 346 348 350 348 348 345 342 341 341 342 343 344 346 348 349 349 350 351 352 352 353 353 354 355 356 357 358 358 359 360 360 360 360 360 360 359 359 359 359 359 359 359 358 358 358 357 357 357 357
323 326 327 325 323 329 339 338 336 336 336 336 334 328 327 341 354 356 349 336 335 345 352 350 348 344 344 354 359 351 346 347 347 346 346 346 346 345 346 347 348 348 348 347 348 348 346 345 344 344 346 347 348 349 350 350 351 352 352 353 354 354 355 356 358 358 359 360 360 360 360 360 360 360 360 360 360 359 359 359 358 358 358 358 357 357 357
320 323 324 324 327 335 339 337 335 336 337 333 329 328 334 339 346 351 350 342 337 341 345 346 351 358 357 354 352 346 345 347 346 344 345 345 345 345 345 346 347 348 347 348 349 348 349 351 349 345 346 347 348 349 349 350 351 352 352 353 353 354 354 355 357 358 359 360 360 361 361 361 360 360 360 360 360 360 360 359 358 358 358 357 357 357 357
320 324 325 326 331 336 337 336 334 334 337 337 335 334 333 336 344 351 349 346 345 347 350 352 356 354 349 347 347 345 344 345 345 344 345 345 345 346 345 345 347 347 347 347 347 346 349 353 353 351 349 348 348 349 349 350 351 351 352 352 352 353 354 355 355 357 358 359 360 361 361 361 361 360 360 361 360 360 360 359 359 358 358 357 357 357 356
329 333 331 333 336 335 335 338 338 336 338 339 336 332 331 337 346 350 348 349 351 352 353 353 350 349 347 346 346 344 343 344 344 344 344 346 346 346 345 346 346 346 346 346 345 345 347 350 354 355 354 352 351 350 349 350 351 351 351 352 352 353 353 354 355 356 357 358 359 360 360 361 360 361 361 361 360 360 360 359 359 358 358 357 357 356 356
338 340 338 338 338 336 334 338 340 336 334 334 332 331 333 338 341 342 345 349 348 347 350 350 347 348 348 346 346 346 345 345 344 345 345 345 345 346 345 345 346 346 346 346 345 344 344 346 350 353 355 355 354 353 352 353 355 355 354 353 352 353 353 353 354 355 356 357 358 359 360 360 360 361 361 360 361 360 360 359 359 359 358 357 357 356 356
340 344 345 341 338 336 334 335 335 332 330 330 330 330 331 332 332 334 342 348 346 343 345 346 347 348 347 345 345 344 344 344 344 345 345 344 344 345 344 343 344 345 345 345 344 343 343 345 347 350 352 353 351 351 353 355 357 359 357 355 354 353 353 353 353 354 355 356 357 358 359 360 360 361 361 361 361 360 360 360 359 359 358 357 356 356 356
339 341 342 339 337 337 335 332 331 330 330 330 328 327 327 328 328 330 336 342 343 342 343 345 346 345 343 343 342 341 343 344 343 344 344 343 342 342 342 342 342 342 343 344 344 344 343 343 345 346 348 350 349 350 353 355 356 358 359 359 357 355 354 354 354 354 354 355 356 357 358 359 360 361 361 361 361 360 360 360 359 359 359 358 357 357 356
338 339 339 338 337 336 335 333 332 331 331 331 329 326 325 325 326 328 330 332 335 338 340 341 342 340 339 340 341 341 342 343 344 344 343 342 342 341 342 342 342 342 344 344 345 345 343 343 343 344 345 345 346 348 351 354 354 355 358 361 360 359 358 356 355 355 355 354 355 356 356 358 359 360 361 361 361 360 360 359 360 359 359 358 357 357 357
338 340 339 338 336 334 334 334 334 333 333 332 330 327 325 324 325 326 327 328 330 333 336 337 338 338 338 339 340 341 342 343 344 343 342 342 342 342 342 342 343 343 344 344 345 344 343 343 344 344 344 343 343 343 347 350 353 354 356 358 360 361 361 360 359 359 358 357 356 355 355 357 358 359 361 360 361 360 360 360 360 360 359 358 357 357 357
338 340 337 338 339 336 333 333 333 333 333 332 331 328 326 326 326 326 327 327 328 329 332 334 335 337 337 337 338 339 340 342 343 343 342 343 342 342 342 342 343 343 343 344 344 344 343 344 344 344 345 343 342 341 342 345 350 353 354 356 357 358 359 360 361 361 362 362 360 357 356 357 357 358 359 360 360 361 360 360 360 360 359 359 357 357 357
337 339 338 340 343 340 335 333 332 332 332 331 329 328 328 327 326 327 328 329 328 327 328 330 333 335 336 336 336 336 337 338 339 339 339 339 339 340 340 340 341 341 342 342 342 342 342 343 344 345 345 343 341 341 341 342 345 348 351 353 352 352 353 353 353 354 356 356 356 356 356 357 357 358 359 359 360 360 360 360 360 360 360 359 358 357 355
336 338 337 339 341 339 334 332 332 332 332 330 328 328 328 327 326 327 328 330 330 328 327 327 329 332 333 333 333 334 334 334 334 334 335 335 335 336 336 337 337 338 339 339 340 339 340 341 343 344 345 343 341 340 341 341 342 344 346 346 344 343 343 344 344 345 345 345 345 346 347 348 351 353 354 356 357 355 356 358 359 360 359 358 358 357 353
331 336 336 337 338 336 332 331 332 331 331 331 329 328 328 327 327 327 328 328 329 329 328 327 326 328 330 330 330 331 331 330 330 331 331 331 331 332 332 333 334 335 336 337 338 338 339 341 343 343 344 343 340 338 339 340 340 340 341 341 339 338 339 340 341 341 340 340 340 340 339 340 341 344 345 346 347 348 350 355 358 359 359 358 356 354 351
330 335 334 334 335 334 331 331 331 331 331 330 330 328 328 328 328 327 328 328 328 329 328 327 325 325 327 328 328 329 329 329 329 330 329 329 329 330 330 331 332 333 334 335 336 337 339 340 342 343 344 345 342 339 339 339 340 341 341 340 339 338 338 339 341 339 338 338 338 339 338 337 336 338 338 339 341 341 342 345 349 354 357 357 353 348 346
330 333 332 332 332 331 331 331 330 330 330 329 329 328 328 328 328 327 327 328 328 327 327 328 327 325 326 326 327 327 327 327 327 328 327 328 328 328 328 329 331 332 333 334 335 337 338 339 342 342 343 345 345 343 341 341 341 342 342 341 341 339 338 339 340 339 337 338 338 338 337 334 333 334 334 335 338 336 333 332 336 338 342 346 346 343 343
329 331 331 332 331 331 331 331 330 330 329 329 328 328 327 327 327 327 327 327 327 326 326 327 326 326 326 326 327 327 327 327 327 327 326 327 327 327 327 328 330 331 332 333 333 334 336 337 339 340 341 343 346 345 344 343 342 342 342 341 341 340 339 339 340 339 338 339 339 339 336 333 333 334 334 334 335 334 332 332 332 328 328 333 340 343 343
329 329 331 332 332 331 330 329 328 328 329 328 328 327 327 327 328 328 328 328 327 327 326 325 325 326 326 327 327 327 328 328 328 328 328 327 327 327 327 328 330 331 332 332 332 332 333 334 336 337 339 343 345 345 345 345 344 343 342 341 340 339 339 340 340 339 339 340 340 340 339 338 338 338 336 334 334 334 333 332 328 322 318 321 329 338 343
327 328 330 330 329 328 328 327 327 328 328 328 327 327 327 328 329 328 328 327 327 326 326 324 324 324 325 325 326 327 327 328 328 329 329 329 328 328 328 329 330 331 331 331 331 331 331 331 332 334 337 342 345 345 345 345 344 343 342 341 339 339 339 340 339 338 337 337 338 339 340 341 341 339 337 336 334 334 334 333 329 325 322 322 324 326 329
326 326 327 327 326 326 327 327 327 327 327 327 327 326 325 326 327 327 327 326 326 326 326 325 324 324 323 324 324 325 326 327 328 328 328 328 328 328 329 329 330 331 331 331 331 331 330 330 330 331 334 340 344 344 344 345 344 343 342 341 340 339 338 338 338 338 337 336 337 338 338 339 339 337 335 336 335 333 332 333 332 329 328 328 328 324 320
325 325 326 326 326 327 327 327 327 327 327 327 327 326 325 325 326 326 326 326 326 326 326 325 325 325 324 323 323 324 325 326 326 327 327 327 327 328 328 329 330 331 330 331 332 332 332 331 331 330 332 337 342 343 344 344 343 343 342 341 341 340 339 338 338 338 338 337 337 337 337 336 335 335 334 334 334 332 331 331 330 328 326 324 324 324 325
326 326 326 326 327 327 326 327 327 328 328 328 328 328 327 327 327 327 327 326 326 325 326 326 326 325 324 323 324 325 325 326 326 326 326 327 327 328 329 329 330 330 331 331 332 333 332 332 331 331 331 333 337 341 343 343 343 343 342 342 341 340 340 340 340 339 339 338 336 336 336 334 332 332 331 329 329 329 329 329 328 328 329 327 325 327 331
327 327 327 327 328 327 328 328 327 327 328 328 328 328 327 327 327 327 327 326 326 325 325 325 324 323 323 324 325 325 326 326 326 326 326 326 327 327 328 329 329 329 329 329 330 331 331 331 331 330 329 329 331 334 338 341 343 342 341 341 342 341 340 340 340 339 338 337 335 335 336 335 333 331 329 328 327 327 327 327 325 325 326 326 326 327 330
327 327 327 327 327 327 327 327 327 327 328 328 327 328 328 327 327 328 327 326 326 325 325 324 324 324 325 325 325 325 326 327 328 327 326 325 326 326 326 327 327 327 326 326 325 326 327 327 329 329 329 329 329 329 331 334 338 341 342 341 340 341 340 340 339 338 337 336 334 335 336 336 335 333 330 329 328 327 326 326 325 323 321 320 321 323 327
325 326 326 326 326 326 326 327 327 327 327 327 327 328 327 327 327 327 326 325 325 325 325 325 325 326 326 326 326 326 326 326 326 326 324 324 325 324 324 324 324 324 324 324 323 322 323 324 326 328 329 329 330 331 332 331 332 336 339 340 340 339 339 339 339 338 336 335 335 335 335 335 335 334 333 331 329 328 327 326 325 323 321 320 321 323 326
324 324 325 325 325 325 325 326 326 326 326 327 327 326 326 326 326 326 326 325 325 326 326 326 326 326 325 325 325 325 325 325 325 324 324 323 323 322 322 323 323 323 323 323 322 322 322 323 325 326 328 328 328 330 334 335 332 329 332 337 339 338 338 338 338 337 336 336 336 335 335 334 333 331 332 331 329 328 327 326 325 323 321 320 321 323 324
322 322 323 323 323 324 324 324 324 325 325 325 325 325 325 325 325 325 325 325 325 325 325 325 325 325 325 325 324 324 324 324 324 324 323 323 322 322 322 322 323 323 323 323 323 323 323 324 324 326 328 329 328 328 331 334 332 327 325 329 335 338 337 337 337 337 337 337 336 335 334 334 333 331 330 331 330 328 327 327 325 323 321 320 320 322 323
322 323 323 323 323 323 323 323 323 324 324 325 325 324 324 324 323 324 324 324 324 325 324 324 324 324 324 324 324 323 323 323 323 323 323 323 323 322 322 322 322 323 324 323 323 323 323 324 324 326 327 329 330 330 330 331 332 330 326 325 330 335 337 336 336 336 336 336 336 335 335 333 332 331 330 330 329 328 327 326 325 323 321 320 321 321 322
320 320 320 320 321 321 322 322 322 323 323 324 324 324 324 323 323 323 324 323 323 323 323 322 322 322 322 322 322 322 321 322 322 322 322 322 322 322 322 323 323 323 323 322 321 322 323 323 324 325 327 328 329 330 330 331 332 332 331 328 328 332 334 335 335 335 335 335 335 335 335 334 332 331 331 330 329 328 327 327 326 325 323 322 322 323 323
319 319 318 319 319 320 320 321 321 321 321 321 322 323 323 323 323 323 324 324 323 322 321 321 320 320 320 320 320 320 320 321 322 322 322 322 322 322 323 323 324 323 322 320 320 321 322 323 324 325 326 328 329 329 330 331 331 332 332 332 332 333 333 333 333 333 334 334 334 334 335 334 334 333 332 331 330 328 328 327 327 326 325 324 325 324 324
319 319 318 318 318 319 319 318 318 318 318 319 320 320 321 322 322 322 322 322 322 321 320 320 319 319 318 318 318 318 320 321 321 322 322 322 322 323 322 323 324 324 322 320 319 320 321 322 324 325 326 327 328 328 329 330 330 330 330 331 331 331 331 331 331 331 331 331 331 332 333 333 333 333 332 331 329 328 327 326 325 324 325 326 325 324 323
317 317 318 318 317 317 317 316 316 316 316 317 317 317 317 318 318 317 317 317 317 317 318 318 318 317 317 317 317 317 318 319 320 320 320 320 321 321 321 322 323 323 321 318 318 319 320 321 322 323 325 326 327 328 328 328 328 328 328 328 328 328 328 328 328 328 328 328 329 330 330 331 331 330 329 329 328 327 327 327 325 323 324 325 325 324 323
316 316 316 317 316 315 315 315 315 315 315 315 315 316 316 316 316 315 315 315 314 314 315 315 316 315 315 315 315 315 316 317 318 318 317 317 318 319 320 321 322 322 320 318 317 318 318 319 320 321 321 323 324 326 326 326 325 325 326 326 325 326 326 327 327 327 327 326 327 327 328 328 328 328 328 328 327 326 326 326 325 323 322 322 324 324 324
316 316 315 315 315 315 314 314 314 314 314 314 314 314 314 314 314 314 314 314 314 313 313 313 314 314 314 313 313 313 313 314 315 316 316 316 316 317 319 320 321 320 318 317 317 317 316 316 316 317 318 319 320 321 322 322 321 321 322 322 323 323 324 324 325 325 325 325 325 325 325 325 326 326 326 327 327 325 324 324 324 323 323 324 323 322 323
314 314 315 315 315 314 314 314 314 314 314 314 313 313 313 313 313 313 313 312 313 312 312 312 312 312 312 312 311 311 311 311 312 314 315 316 316 317 318 319 319 318 317 316 316 316 316 315 314 315 315 315 316 316 316 316 316 317 317 317 318 318 318 319 320 321 322 323 323 324 324 324 325 325 325 325 325 325 324 324 324 323 324 325 325 323 323
311 312 313 313 313 313 314 314 314 314 313 313 313 313 312 311 310 310 310 310 310 309 310 310 310 310 310 310 310 309 309 309 309 310 312 314 315 316 316 317 316 316 315 315 315 315 315 314 313 314 314 314 313 313 313 312 312 313 313 313 312 312 313 313 314 315 316 317 318 319 320 321 323 324 324 324 324 324 324 324 324 323 322 323 323 323 324
310 310 311 311 311 312 312 313 313 313 313 313 313 312 311 309 309 308 308 308 308 307 307 308 308 308 308 309 309 309 308 308 308 308 309 311 313 314 314 314 314 314 314 314 314 313 313 313 313 313 313 313 312 312 311 310 310 310 310 310 310 310 310 310 311 311 312 312 313 314 315 316 318 319 321 321 322 323 323 323 323 323 323 323 323 322 323
309 309 309 310 310 310 311 311 311 312 312 312 312 312 310 309 308 307 307 306 306 306 306 306 306 306 306 307 308 308 308 308 308 308 308 309 311 312 312 312 312 312 311 311 311 311 311 311 311 311 311 310 310 309 308 308 309 309 309 309 309 309 309 309 309 310 310 310 310 310 311 311 311 312 314 315 317 319 321 321 322 322 323 323 323 322 322
308 308 308 309 309 309 309 310 310 311 311 311 310 310 308 307 307 307 306 306 306 305 305 304 304 304 305 305 306 306 307 307 307 307 307 308 310 310 311 310 310 309 308 308 308 307 307 307 306 306 306 306 306 306 306 306 306 306 307 307 308 308 308 308 308 308 309 309 309 308 308 308 308 308 309 310 311 313 315 317 318 319 321 321 321 321 321
308 308 308 308 308 308 308 308 309 309 309 309 309 308 307 306 306 305 305 304 304 304 304 304 304 304 304 304 304 305 305 305 305 305 306 307 308 308 308 308 307 306 306 305 305 305 305 304 304 303 302 302 303 303 303 304 304 304 304 305 306 306 307 307 308 308 308 308 308 308 307 307 307 307 307 307 308 309 310 312 313 315 317 318 318 318 318
307 307 307 308 308 308 308 308 308 308 308 308 307 307 306 306 306 305 304 303 303 302 302 302 303 303 303 303 303 303 304 304 304 304 304 305 305 305 306 306 306 305 305 305 305 304 304 303 303 302 301 301 301 301 301 301 301 302 302 303 303 304 305 305 306 306 306 307 307 307 306 306 307 306 306 306 306 306 307 308 309 309 310 311 312 312 313
307 307 306 306 307 307 308 308 308 308 308 307 307 306 305 304 304 304 303 302 301 300 300 300 301 302 302 303 302 301 302 302 302 302 302 302 302 303 303 304 304 305 305 305 305 304 303 303 302 301 301 300 300 299 299 299 299 299 300 301 301 302 302 302 303 303 304 305 305 305 305 305 305 305 305 305 304 304 304 305 305 305 305 306 306 307 308
Wind_Speed
7 6 10 12 9 6 8 11 12 12 14 17 20 18 11 10 11 15 9 10 10 8 7 9 10 9 10 10 9 7 5 6 6 6 7 7 8 8 10 11 12 14 15 15 15 15 16 18 22 26 28 31 33 34 34 35 36 37 38 38 39 39 39 40 43 44 43 41 41 41 41 41 42 41 41 40 39 39 39 40 41 42 42 41 41 41 41
8 8 9 9 7 7 8 11 13 14 16 19 21 19 14 14 16 14 7 10 11 9 8 10 10 8 7 5 3 3 4 7 7 7 7 8 8 9 10 11 12 14 16 16 15 16 15 16 19 24 26 29 31 33 33 34 36 38 38 38 39 39 40 43 44 42 40 40 40 40 41 42 42 41 41 40 40 40 41 42 42 41 41 41 41 41 40
7 8 8 8 9 10 11 12 12 14 18 20 20 17 13 12 13 12 8 9 9 7 6 9 9 4 2 4 4 5 7 7 7 7 8 9 9 9 10 11 12 13 14 14 14 15 16 17 20 24 27 30 32 33 33 34 37 38 38 38 38 39 42 43 41 39 39 39 39 40 41 42 42 41 41 40 41 42 42 42 42 41 40 41 41 41 40
5 6 7 11 15 13 11 14 15 15 15 15 14 12 10 11 11 10 11 9 8 7 6 8 9 5 4 8 8 5 6 6 7 8 9 10 9 9 9 9 11 13 14 13 15 16 17 19 22 26 28 29 29 30 32 35 37 37 37 38 39 41 42 40 38 39 39 39 39 40 42 42 42 42 41 41 42 42 42 43 42 41 41 42 41 40 40
4 7 8 10 12 10 10 13 12 12 12 10 10 9 10 13 12 10 12 10 8 7 7 6 9 9 8 9 6 4 5 6 6 8 9 9 9 7 7 8 10 12 12 12 15 16 16 19 25 31 33 31 31 35 37 37 35 35 37 38 39 40 40 38 38 40 39 39 40 41 42 42 41 40 40 41 42 42 43 43 41 41 42 42 41 40 40
3 9 9 7 5 6 7 6 5 6 12 12 11 11 9 11 13 11 10 8 9 10 9 9 12 11 7 6 5 4 3 3 5 8 8 8 7 6 6 8 9 9 9 9 11 14 19 25 30 33 34 34 35 36 35 33 33 35 37 37 37 37 37 37 39 39 39 40 41 41 41 40 39 39 40 41 42 42 41 40 40 41 42 42 41 41 42
3 7 6 3 7 7 5 11 11 7 9 12 13 15 13 12 14 14 10 9 10 11 11 12 12 7 5 5 4 3 2 2 3 6 6 6 5 5 5 6 7 7 8 8 8 11 18 23 26 27 29 31 31 29 29 32 34 36 36 36 36 35 35 36 38 38 39 40 41 40 40 39 38 39 40 41 42 41 39 38 40 40 40 41 42 42 43
1 2 2 4 8 10 13 11 8 7 5 2 6 14 16 13 11 11 10 10 10 11 11 9 6 6 6 5 3 2 2 1 2 4 6 6 6 5 5 5 6 7 8 10 12 14 16 16 18 21 25 27 26 26 29 32 33 34 35 33 33 33 33 35 37 38 40 40 39 38 38 37 38 39 40 41 41 39 37 37 38 38 39 40 41 42 42
2 3 5 5 7 12 10 4 4 5 4 4 1 6 11 9 9 10 10 11 10 8 6 5 6 7 6 4 2 0 2 3 2 3 5 6 6 6 6 5 5 6 7 11 16 18 18 18 21 22 21 22 23 23 25 27 28 29 29 30 32 33 34 36 37 38 39 37 36 36 36 37 38 39 40 40 40 38 37 36 36 37 38 39 39 39 39
3 3 5 4 4 6 3 1 4 3 3 4 3 3 6 7 8 10 11 12 10 5 5 7 7 7 6 3 3 2 2 4 4 5 5 6 6 6 7 6 5 6 6 6 12 17 19 20 23 23 21 23 24 23 23 24 25 26 28 31 34 34 35 37 38 38 38 38 37 36 37 39 41 41 41 40 39 39 38 37 37 37 37 37 37 37 38
4 4 5 4 4 5 3 5 9 8 6 4 3 3 6 6 4 6 9 11 11 9 9 9 8 7 6 6 6 2 2 3 4 4 5 7 7 6 8 9 9 9 8 3 5 10 13 15 20 23 25 27 26 23 24 26 26 26 29 32 34 36 38 39 38 38 38 38 38 37 38 40 41 41 40 40 39 39 39 39 39 38 38 37 37 37 38
6 6 5 4 4 4 4 8 11 11 8 1 4 5 7 6 6 3 8 11 11 11 12 11 9 8 7 6 5 3 3 3 3 4 5 6 7 7 10 12 13 13 15 14 9 6 3 3 13 22 26 26 25 23 24 25 25 29 34 36 36 37 36 35 35 36 37 38 38 39 41 43 42 41 40 38 38 39 40 40 39 38 38 39 38 38 37
8 8 6 5 4 3 5 9 10 11 8 0 5 6 4 9 13 9 6 9 11 11 12 11 8 5 3 5 6 6 5 4 4 5 4 4 5 7 9 12 13 14 17 17 14 13 13 8 5 17 22 21 19 18 19 20 25 31 34 34 33 33 31 31 33 35 36 38 40 42 45 44 42 40 40 40 40 40 40 39 38 37 37 38 37 37 37
7 7 5 5 4 2 5 7 6 6 3 3 4 5 9 12 13 10 7 7 8 9 8 7 6 5 7 8 8 7 5 4 5 6 6 6 7 7 9 12 13 13 14 16 17 17 18 16 9 6 14 16 15 15 16 19 25 27 23 22 25 27 29 31 33 35 37 40 42 43 43 41 38 39 41 41 40 40 39 37 37 36 35 34 33 33 34
5 5 5 5 4 2 6 5 3 5 3 3 6 10 13 12 9 8 8 6 4 7 8 9 9 10 10 9 8 7 6 6 7 8 8 8 8 8 10 13 15 14 13 13 17 19 19 20 18 11 3 5 8 11 12 13 15 16 17 20 24 26 28 31 32 34 37 39 39 39 39 38 39 39 39 39 39 39 38 36 34 33 32 32 31 31 31
5 6 6 4 3 1 3 2 2 2 3 5 7 10 10 8 8 7 6 5 2 5 11 13 12 11 10 9 8 7 7 7 7 9 9 8 8 9 10 12 15 16 13 12 16 20 21 20 20 18 13 8 5 2 1 4 6 7 12 18 23 26 29 31 32 34 36 37 38 38 38 37 37 37 37 38 38 38 36 33 31 30 31 32 31 30 31
4 4 4 4 5 3 2 3 3 2 3 6 8 9 7 5 7 6 5 4 3 3 8 11 11 10 10 9 8 8 8 8 8 8 8 8 8 9 11 13 15 16 14 13 14 17 19 18 18 18 17 14 11 8 7 7 6 5 6 11 18 24 27 28 30 32 33 35 37 39 38 38 37 37 36 34 31 30 30 30 30 30 30 31 31 31 30
1 1 3 6 6 4 3 3 4 5 5 7 8 8 6 5 6 5 5 5 4 3 3 6 9 8 8 10 10 8 8 8 8 8 9 9 9 9 10 12 14 14 14 14 14 15 16 17 15 14 14 13 10 9 9 8 7 5 4 6 12 17 21 24 27 28 29 30 33 35 36 36 35 35 32 29 28 28 29 31 33 32 31 31 31 30 30
4 2 4 7 7 5 4 3 4 6 7 7 7 7 6 6 6 6 7 8 7 5 4 5 9 9 8 10 9 8 8 8 9 10 11 10 10 11 11 13 14 13 12 12 13 13 14 15 15 14 14 13 11 9 8 7 6 5 4 4 6 10 13 16 18 21 24 27 29 30 31 31 31 30 30 30 31 31 32 33 32 31 31 30 30 30 30
5 3 5 8 7 5 5 5 5 5 6 6 7 8 6 5 6 7 9 9 7 6 5 5 9 10 9 9 9 8 8 8 9 10 11 10 10 11 13 16 17 15 13 12 14 13 13 15 17 16 16 16 16 15 11 7 4 5 5 4 5 6 8 10 11 12 16 18 20 22 25 26 28 30 31 33 34 36 38 38 35 33 33 32 32 33 31
3 3 6 8 6 6 7 7 6 6 5 4 6 9 8 6 5 7 10 11 9 7 5 4 7 11 10 8 9 10 8 7 8 9 9 9 9 10 12 15 17 16 13 13 14 14 15 17 18 19 20 21 20 20 18 13 7 4 4 4 4 4 5 6 7 8 10 12 14 17 20 23 27 32 35 37 37 39 44 47 45 43 40 38 38 37 33
5 6 7 7 5 4 4 5 8 7 5 4 6 7 8 8 4 6 11 13 11 10 8 6 4 9 9 7 9 10 9 9 9 9 9 9 8 10 13 14 15 16 14 13 14 14 15 17 18 19 21 21 21 21 21 19 14 9 6 6 7 7 7 7 6 6 6 6 7 10 13 17 22 28 33 37 39 38 40 43 46 48 46 43 42 39 36
5 5 6 6 6 6 4 5 9 7 2 3 6 6 5 7 6 4 10 13 12 9 10 8 2 6 7 8 10 11 11 10 10 10 11 10 9 10 12 13 13 14 14 14 14 13 13 15 17 17 19 20 20 19 19 19 17 14 12 12 12 12 12 12 12 12 11 11 11 10 10 13 16 20 25 31 35 34 34 36 40 45 47 44 43 42 40
8 3 5 5 7 8 6 7 9 6 2 3 6 6 4 6 6 7 11 12 12 8 6 8 4 5 8 9 10 11 12 10 10 11 12 13 13 13 13 13 12 12 13 13 13 12 13 16 17 17 18 19 18 17 17 17 17 17 16 15 14 14 14 14 16 17 17 17 16 16 15 14 13 14 17 20 24 27 31 36 40 44 47 44 42 42 42
8 3 2 5 10 11 8 8 8 5 4 6 4 2 3 6 8 10 12 11 10 8 4 7 5 6 9 9 9 11 11 9 10 13 13 14 15 15 15 14 13 13 13 14 15 15 16 17 18 18 19 19 18 16 16 15 15 17 17 16 14 13 14 15 16 18 19 20 19 18 18 17 15 14 14 14 16 21 25 27 31 39 49 50 46 42 40
6 2 5 9 12 11 8 7 7 4 5 7 3 2 3 9 11 12 11 11 10 8 5 7 6 7 9 9 9 10 10 10 13 15 13 11 13 13 13 13 13 15 17 18 18 18 17 17 18 18 19 19 17 15 14 14 15 16 15 15 14 12 11 13 15 16 18 18 18 18 17 17 18 18 17 16 18 18 16 14 14 21 32 41 44 41 36
5 5 10 11 9 7 6 6 6 5 4 6 5 1 3 7 10 10 10 10 11 9 7 8 7 8 10 11 10 11 11 12 13 12 10 9 10 11 13 15 15 17 20 21 20 19 18 18 18 18 18 17 15 14 13 13 14 15 14 14 13 12 11 12 13 15 17 18 17 17 16 15 17 18 18 17 18 18 15 16 19 25 35 41 43 43 37
5 4 5 8 10 8 6 6 7 6 5 5 6 4 3 6 9 10 10 10 9 8 8 10 10 9 8 9 9 9 11 12 11 9 9 10 11 13 16 18 18 19 22 23 22 22 22 21 21 20 20 17 14 13 12 12 13 14 13 12 12 11 11 12 12 14 16 17 17 18 16 15 16 17 18 19 16 13 9 8 5 15 35 44 41 43 44
6 3 1 6 10 11 10 9 7 6 5 5 4 5 6 8 9 10 9 7 6 5 6 8 10 9 8 7 8 8 9 9 9 9 10 13 16 18 18 18 21 24 25 25 25 24 23 23 23 23 21 17 14 11 11 10 11 12 11 10 9 8 9 11 11 13 13 13 14 17 16 16 19 18 20 24 22 21 27 30 19 11 28 43 40 37 38
6 5 7 9 10 11 12 11 8 6 6 6 5 5 6 8 9 8 6 4 4 4 4 4 6 8 8 7 7 8 8 8 9 11 13 17 20 22 21 21 22 22 21 21 22 23 22 23 23 23 22 18 14 12 10 10 10 10 10 10 9 7 6 7 8 10 11 10 11 14 14 15 18 17 17 22 24 23 27 31 26 23 27 35 36 33 30
8 10 11 11 10 12 12 10 8 7 6 6 7 7 7 7 9 8 6 4 3 3 3 4 5 6 7 7 9 11 11 11 13 15 17 20 22 24 25 24 19 14 13 16 20 21 22 22 23 24 23 21 16 13 12 11 11 11 11 11 10 8 7 6 7 9 10 10 10 13 13 13 15 17 16 18 20 20 22 25 25 24 25 28 31 31 28
12 12 12 10 10 11 10 8 8 8 7 7 8 8 6 7 9 8 6 3 3 3 4 5 5 5 6 8 11 13 13 14 16 17 19 21 23 24 25 24 21 18 18 19 21 22 22 23 23 23 23 23 21 18 15 13 12 12 12 10 10 9 8 8 8 9 10 11 10 12 12 12 12 14 15 15 15 17 19 21 22 22 23 25 27 28 27
14 12 11 9 9 10 10 8 8 8 8 7 6 5 5 6 7 6 5 4 3 3 4 5 5 7 9 11 12 13 14 15 16 16 17 19 21 22 23 23 23 23 23 22 23 23 23 22 22 21 21 22 21 20 18 15 13 12 11 10 9 9 8 8 8 8 9 10 10 10 11 10 10 11 11 12 14 16 19 21 20 21 22 24 24 24 25
11 9 8 7 7 9 9 9 7 7 7 7 5 5 6 5 5 5 5 4 4 4 5 6 8 11 13 13 13 13 13 12 10 10 12 15 18 21 22 23 24 24 24 25 25 24 23 22 21 20 19 18 19 19 19 17 14 11 10 9 9 8 8 7 7 7 8 8 8 9 10 10 10 10 9 10 13 15 17 18 19 20 21 21 21 21 21
10 10 9 8 7 7 8 8 8 8 8 7 6 6 5 4 5 6 6 5 5 7 9 11 13 15 15 13 12 11 11 9 9 10 12 16 18 21 23 24 23 23 23 24 25 23 22 21 20 19 18 17 16 16 16 16 14 12 11 9 8 7 7 6 6 6 6 6 6 8 9 9 9 8 8 9 11 12 13 14 15 16 19 20 20 19 18
11 10 9 8 8 8 8 8 8 8 8 7 6 6 6 6 6 7 7 8 10 12 14 15 16 15 13 11 10 10 11 12 13 14 16 17 20 23 24 22 21 19 18 19 22 22 21 20 19 18 17 16 15 14 14 14 13 11 11 10 8 5 5 6 6 6 6 5 5 6 7 7 7 7 7 8 8 9 10 11 11 12 15 18 19 19 18
11 11 10 9 9 9 9 8 8 9 9 8 7 8 8 8 8 10 11 12 14 15 16 16 15 12 12 13 14 15 16 16 17 18 18 19 22 24 22 20 19 16 12 13 18 21 20 18 17 17 16 16 16 14 14 13 12 10 10 10 10 7 6 5 6 7 6 4 4 4 5 5 6 5 6 7 8 8 9 10 10 10 13 16 18 18 17
11 11 10 10 9 9 9 10 11 11 10 9 9 10 11 11 13 15 15 15 15 17 17 17 16 15 16 17 17 17 18 19 19 20 20 20 22 22 19 17 17 14 11 12 17 20 19 17 16 16 18 19 18 16 15 14 12 10 8 8 9 8 7 6 6 6 6 4 3 3 3 4 5 6 6 7 9 10 10 10 10 11 13 16 18 17 16
11 11 10 10 9 8 9 11 13 14 13 11 9 10 14 17 18 17 16 16 17 19 19 18 18 17 16 15 14 15 18 20 21 20 20 20 21 21 19 20 21 19 16 17 20 21 19 18 17 17 18 20 20 19 17 15 14 12 9 8 9 8 8 8 8 7 6 5 3 1 1 2 4 5 7 9 10 11 12 12 13 13 14 15 16 16 15
10 10 10 10 9 8 8 9 10 13 17 16 13 11 14 17 18 16 15 16 18 20 21 20 17 15 13 13 13 14 18 22 22 21 21 21 22 20 18 20 24 24 22 23 24 24 23 22 20 19 18 18 19 19 17 16 16 15 14 11 9 8 8 9 9 9 8 7 6 4 2 2 3 4 6 6 7 7 8 10 13 15 15 16 16 16 16
10 9 9 9 8 7 8 9 10 13 17 19 17 16 18 19 17 15 14 15 17 20 21 20 18 15 15 16 17 17 20 23 25 25 24 22 18 14 11 14 21 24 25 26 27 27 26 26 25 22 19 18 18 18 17 16 17 17 16 13 11 10 9 9 10 10 9 9 8 6 4 3 4 5 5 5 5 5 4 4 7 11 14 16 17 17 17
10 11 11 10 9 9 11 12 12 13 15 17 19 21 21 21 20 18 18 19 21 21 21 22 22 21 21 22 22 21 21 22 24 26 26 23 19 13 9 13 21 25 25 27 29 29 28 28 27 24 21 19 18 17 17 18 19 19 18 16 15 14 13 13 12 11 10 8 7 7 6 5 5 5 4 4 6 7 7 7 6 8 11 14 16 17 16
12 12 11 10 9 11 13 14 14 13 14 17 20 23 23 23 23 23 22 22 22 22 22 24 25 24 24 24 22 20 19 19 20 21 22 24 25 22 17 17 21 25 27 28 30 30 29 28 26 24 22 21 20 18 18 20 21 21 20 19 18 18 17 17 16 14 13 12 11 10 9 8 7 6 3 3 5 5 6 8 9 9 8 10 13 15 16
14 13 11 10 12 13 15 15 14 13 13 16 22 25 25 25 25 25 24 23 23 23 24 24 23 23 24 24 21 17 17 18 19 19 17 18 21 24 23 22 23 26 28 30 31 30 29 28 26 24 23 23 23 21 22 23 23 23 23 22 22 22 21 20 18 17 16 16 15 14 13 11 10 8 5 1 2 3 4 6 8 9 10 9 9 11 14
15 15 15 16 16 15 14 13 13 14 17 22 26 27 26 26 26 26 26 25 24 24 24 24 23 21 21 21 20 20 21 22 22 20 15 10 10 15 21 24 25 27 29 31 31 30 29 29 29 27 27 27 27 27 28 28 28 27 27 26 26 25 25 23 22 20 19 17 16 16 15 14 12 11 9 6 3 3 5 5 6 7 9 11 11 11 12
16 18 19 19 16 14 15 17 19 22 25 25 23 21 23 26 26 26 26 26 25 25 25 26 25 23 21 20 19 20 23 25 26 25 20 15 12 16 21 24 26 28 30 31 31 29 29 31 33 33 32 33 34 34 35 35 34 34 33 33 32 31 29 28 26 24 23 21 20 18 18 17 15 13 11 10 8 5 3 4 4 4 5 8 10 11 11
18 18 18 17 17 17 20 23 25 25 22 17 12 13 19 24 25 24 25 27 27 27 28 28 27 26 26 25 22 20 19 19 21 23 23 22 21 22 23 25 26 28 29 29 29 29 30 32 34 35 35 37 38 38 38 38 39 39 38 38 37 36 35 33 31 28 27 25 24 23 22 21 20 18 16 15 14 10 7 6 6 4 3 3 5 6 6
18 17 17 18 20 21 23 24 21 17 13 12 11 13 17 21 23 23 24 26 28 28 29 29 29 28 28 27 26 24 21 18 15 17 20 23 23 23 24 24 26 27 28 29 29 30 30 32 33 34 35 36 36 35 35 36 37 38 38 38 37 37 37 36 35 34 33 31 30 29 27 26 25 24 22 21 19 17 14 13 12 9 6 4 4 6 5
19 19 19 21 21 20 20 18 14 10 11 14 15 15 17 22 23 22 21 22 25 26 27 28 28 28 28 27 26 25 25 22 18 17 19 22 23 23 23 24 24 26 27 28 28 28 29 30 31 32 33 33 33 32 32 33 33 34 34 34 34 34 34 34 34 35 36 36 35 34 32 31 29 28 26 25 24 22 19 18 17 14 11 8 7 7 6
20 19 19 18 18 17 17 14 11 11 14 16 16 16 20 22 20 17 18 20 20 21 24 27 27 26 26 27 26 24 24 24 23 21 21 22 22 22 22 22 23 24 24 25 25 25 26 28 29 30 31 31 31 30 30 30 30 30 31 31 31 31 32 32 33 34 35 36 37 36 36 34 33 31 30 29 27 25 23 22 20 17 14 13 12 11 9
18 17 15 15 16 18 19 17 16 16 17 18 18 19 21 20 16 15 17 20 19 18 20 23 25 24 25 26 26 25 24 24 24 24 23 22 22 21 21 20 20 21 21 22 22 23 23 24 26 27 28 29 29 29 28 28 28 29 29 29 30 30 31 31 32 33 33 33 34 35 35 35 34 34 34 33 32 30 28 26 24 22 20 19 17 15 13
20 19 19 18 19 20 21 22 21 20 20 19 19 19 18 17 16 16 17 19 19 18 18 18 20 22 23 24 25 26 25 25 24 25 25 24 23 22 21 20 20 19 19 19 19 20 20 21 23 24 25 26 27 27 27 27 27 27 28 28 29 29 30 30 30 30 30 31 31 32 32 33 33 33 33 33 33 33 32 30 29 27 26 24 22 20 19
Wind_Direction
307 295 283 281 283 266 255 264 254 229 211 205 213 221 196 160 203 236 223 172 189 229 234 228 226 214 218 228 227 232 247 245 242 247 247 237 225 217 209 206 201 197 201 202 196 195 193 190 192 195 198 201 201 203 205 203 201 202 200 198 199 201 202 205 209 210 210 209 209 210 210 211 212 213 214 215 215 215 217 218 220 222 223 224 225 225 225
313 301 284 279 294 296 277 266 258 244 229 217 217 219 202 197 224 236 207 180 197 216 219 225 228 217 215 225 206 198 234 248 252 255 253 248 238 223 213 210 207 203 203 201 196 193 190 188 191 193 196 199 200 202 203 200 201 201 198 198 199 200 203 207 209 209 208 208 208 209 209 211 212 212 213 213 213 215 217 218 220 221 222 224 224 224 224
313 301 306 313 312 304 289 276 262 247 239 231 225 221 205 206 229 237 216 198 215 235 232 233 245 259 281 269 247 226 237 252 263 266 260 251 243 233 222 211 207 208 207 201 194 190 190 192 192 192 196 198 199 201 200 199 201 199 197 198 199 201 205 208 208 207 207 207 207 208 209 211 211 212 212 212 213 214 216 218 219 219 220 222 223 224 224
296 298 328 324 318 313 289 268 257 245 240 238 235 227 206 199 209 224 231 225 228 247 248 249 263 279 265 253 253 258 265 263 250 245 248 249 245 239 230 219 209 209 208 201 194 192 194 193 192 194 196 197 198 200 200 200 200 197 196 198 199 203 207 207 205 205 206 206 207 208 209 210 211 211 211 211 213 214 215 216 217 217 219 221 222 223 223
288 296 314 319 323 316 274 255 248 236 235 245 253 245 218 201 193 204 227 227 213 212 209 226 253 253 241 242 242 242 264 278 270 254 248 250 254 248 234 226 217 212 208 202 199 198 195 192 195 197 195 193 197 200 200 200 197 194 196 199 201 205 206 204 203 204 204 204 206 208 209 210 210 210 210 212 213 214 215 215 215 216 218 220 221 221 222
278 293 308 323 302 251 246 289 312 241 223 221 232 242 229 207 204 211 221 217 206 201 187 198 228 236 224 212 200 193 221 273 292 283 268 263 271 266 236 227 224 217 211 208 207 203 200 199 200 200 197 197 200 201 198 195 192 193 197 200 202 205 204 203 204 204 203 204 207 208 209 209 209 209 210 212 214 215 215 215 214 216 217 219 220 221 222
255 297 327 310 237 232 293 331 333 291 233 209 215 233 231 214 216 222 217 210 211 208 199 204 214 204 156 143 143 135 165 218 276 297 297 300 310 301 265 246 234 214 200 200 207 209 209 208 204 200 199 200 200 196 192 191 192 194 197 200 203 204 203 203 204 203 203 205 207 208 208 207 208 209 211 213 215 216 215 215 216 216 217 219 220 221 222
203 299 302 234 248 292 318 323 333 341 323 281 237 241 237 220 209 214 218 219 218 213 210 206 182 147 131 114 103 104 85 48 343 319 310 312 321 319 302 282 257 232 208 197 199 204 209 209 203 201 202 199 194 190 191 192 193 194 196 199 202 203 203 204 204 204 204 205 206 207 206 206 208 210 212 214 215 215 215 217 218 219 219 221 221 221 222
175 217 255 262 294 309 315 331 4 4 341 335 320 249 253 235 194 190 206 220 228 223 201 169 148 141 120 82 69 122 45 32 354 330 315 306 312 318 314 303 285 275 249 217 203 196 194 197 200 202 200 193 188 188 190 192 193 194 196 200 202 203 204 205 205 205 205 205 206 206 205 205 209 211 212 214 215 214 215 217 218 219 221 223 223 223 223
182 201 261 282 297 285 264 298 319 305 270 259 195 195 272 258 205 193 199 205 211 199 150 149 152 138 117 129 207 235 26 24 3 350 330 315 320 328 328 329 329 326 309 244 209 195 189 192 197 195 191 186 184 186 187 188 190 193 198 204 204 203 205 206 205 205 205 205 205 205 204 207 210 211 212 214 214 213 214 216 217 219 221 223 225 226 225
175 182 231 240 241 245 258 314 319 317 303 276 174 190 268 267 217 198 199 198 194 173 157 158 153 142 156 203 223 220 56 41 22 359 339 340 344 341 346 353 353 352 4 36 171 182 184 191 194 191 187 184 183 185 188 188 190 195 204 207 205 205 207 206 205 205 205 206 206 205 207 210 212 212 213 213 214 213 214 216 217 218 219 221 224 225 226
184 191 221 242 243 250 304 330 324 316 311 323 146 204 259 309 326 260 200 198 194 176 164 160 162 172 185 197 193 146 103 77 51 21 353 350 352 353 2 6 8 19 38 55 68 72 70 190 194 189 186 184 185 190 191 190 193 201 206 208 207 209 209 206 205 205 205 206 207 207 209 212 212 213 213 213 213 213 214 216 216 216 216 217 220 223 224
197 200 227 262 253 260 324 329 322 319 320 116 171 208 267 320 314 295 243 215 198 177 168 166 174 191 157 124 126 120 106 97 79 50 23 13 19 23 22 20 24 38 51 56 56 47 38 39 171 187 185 182 187 191 189 194 206 210 210 208 207 209 208 205 205 206 207 208 209 211 213 213 212 212 212 212 212 213 214 215 215 215 215 216 218 220 221
204 193 217 257 253 289 335 321 324 346 345 201 224 287 307 302 300 310 301 249 195 162 160 154 138 129 114 106 111 111 99 94 82 60 47 44 41 42 41 36 39 48 53 52 49 42 38 42 56 159 185 184 185 187 189 204 217 220 218 213 210 209 209 207 207 208 208 210 211 213 216 215 213 212 212 212 212 213 214 214 214 215 215 215 217 219 220
194 178 200 232 232 299 338 320 349 28 10 264 294 313 305 297 310 338 326 283 200 145 135 125 120 124 120 111 112 108 91 79 73 63 57 51 42 44 46 43 45 51 53 50 46 39 36 41 44 48 103 175 184 188 197 218 230 232 229 221 215 213 212 211 211 211 212 213 214 216 217 216 215 214 213 211 212 213 213 212 212 213 214 214 215 218 219
186 183 193 194 179 158 6 14 104 48 322 300 315 310 299 314 342 346 333 319 301 135 129 128 129 127 120 118 118 106 87 77 69 63 60 53 44 44 47 46 49 55 59 54 47 42 39 39 41 42 45 50 61 107 233 286 284 262 241 227 219 216 215 215 215 215 215 215 216 218 219 218 217 218 216 213 212 212 211 210 209 211 212 211 212 214 216
214 181 167 144 146 147 98 103 115 76 351 338 329 305 297 338 352 337 341 348 346 85 115 122 122 119 118 117 108 94 84 75 65 61 58 52 48 46 46 46 49 57 65 64 58 51 45 43 43 41 42 46 46 33 12 351 333 309 265 234 223 219 218 219 219 219 218 219 218 219 219 217 217 219 219 216 214 212 210 209 210 212 211 210 211 213 215
274 86 130 138 142 147 140 131 113 82 44 5 334 313 323 358 351 347 7 4 352 14 70 102 105 102 104 101 91 83 80 71 59 58 54 48 47 47 47 47 48 55 62 62 60 58 51 48 50 49 47 48 42 22 9 4 351 325 287 243 231 227 225 225 225 223 223 224 224 224 224 221 220 220 219 217 214 212 210 210 212 213 211 210 210 212 214
234 183 161 150 149 159 152 114 77 66 50 15 336 325 349 1 352 12 32 18 2 7 28 79 94 90 84 86 84 75 70 63 55 54 52 45 40 39 40 42 45 52 56 50 48 49 44 40 44 51 54 51 41 25 11 3 354 336 303 259 246 242 239 238 237 234 231 230 230 229 228 226 225 225 222 218 215 212 210 211 212 212 212 211 209 209 211
233 175 166 151 138 127 99 79 60 52 43 13 340 335 356 16 11 27 44 34 16 18 35 73 96 95 84 80 80 71 62 57 55 56 54 49 41 36 34 34 36 40 41 38 39 38 32 29 32 38 41 39 34 31 24 10 351 340 322 282 255 253 252 254 257 256 253 252 248 243 238 231 228 226 223 220 218 216 214 212 211 210 210 210 210 210 208
229 155 168 152 120 75 64 73 70 50 28 10 358 345 342 3 31 50 58 48 26 14 14 40 88 96 89 80 79 79 72 65 65 65 62 58 52 47 44 42 43 43 40 35 35 30 22 21 25 29 30 29 28 28 25 20 16 0 332 317 303 289 282 278 279 279 279 276 268 259 252 243 237 233 229 225 223 223 222 219 215 212 210 210 211 210 204
207 182 183 165 128 91 80 87 78 58 12 6 37 11 335 331 357 60 74 65 40 11 346 341 67 94 95 91 90 89 85 81 79 77 72 68 63 60 60 60 57 55 51 46 43 34 25 26 30 30 27 25 26 26 24 23 24 21 8 8 14 15 15 11 360 347 335 327 312 291 275 265 256 249 243 237 232 230 230 228 224 220 216 214 212 209 203
239 197 182 161 125 114 124 107 89 76 10 9 54 46 343 319 324 38 79 80 66 29 339 322 20 97 102 100 98 94 88 85 84 80 78 77 72 64 64 65 62 58 56 54 51 45 39 39 40 37 32 30 29 28 27 29 32 35 41 48 49 46 44 45 43 40 35 29 19 359 332 309 292 277 266 257 249 244 241 236 232 226 222 217 213 207 199
272 226 172 145 114 116 130 117 103 101 91 49 49 37 4 334 338 27 59 69 73 61 340 310 333 79 90 90 90 90 88 85 84 83 79 75 73 68 62 61 60 58 55 52 51 50 50 50 47 42 40 39 36 34 35 40 44 49 53 57 61 60 59 61 60 57 54 51 43 34 21 3 335 306 290 279 273 267 256 245 236 226 219 214 210 202 193
263 240 159 116 108 113 115 102 95 94 81 69 52 6 38 32 15 27 45 50 57 59 356 309 330 51 74 80 81 82 84 80 77 79 77 69 66 63 55 51 52 55 54 51 48 48 51 52 50 46 43 41 39 39 43 46 50 52 52 51 54 57 60 63 63 61 60 59 55 48 39 29 14 348 324 304 288 275 260 248 237 224 214 205 196 186 181
250 190 116 100 102 108 106 91 85 77 70 75 65 311 33 56 45 37 41 43 43 35 353 313 330 26 53 65 71 72 73 69 67 68 68 63 59 54 44 41 47 56 58 53 48 47 49 51 52 47 42 39 38 39 44 50 53 53 53 54 54 54 59 66 70 70 68 67 64 56 45 35 24 8 352 334 311 282 244 210 200 197 191 182 172 163 163
230 154 117 107 108 110 100 98 110 120 109 101 103 25 14 53 59 51 45 44 41 28 356 337 354 24 39 48 56 63 63 62 60 57 54 54 54 51 48 46 48 55 57 51 46 45 46 49 50 45 38 38 38 35 37 47 55 55 57 59 60 59 63 71 77 81 80 78 74 67 58 48 34 18 7 353 320 281 236 203 191 166 146 142 145 144 144
193 175 129 129 141 135 109 104 119 126 122 120 127 128 85 64 63 59 51 44 37 24 1 1 18 34 36 35 47 60 60 57 55 50 46 48 49 51 56 55 52 53 53 47 41 38 39 43 44 39 34 36 40 36 32 39 49 53 54 58 61 63 70 75 80 85 85 85 84 80 74 67 54 36 27 21 352 328 10 23 261 166 124 114 120 129 130
176 198 112 118 131 128 117 113 114 113 110 112 119 116 98 86 77 68 57 43 34 28 12 9 22 38 41 36 44 55 58 57 57 54 52 52 52 53 57 58 55 52 48 41 36 33 32 36 37 33 30 34 41 40 34 36 43 45 47 54 58 63 74 82 85 86 84 85 86 84 79 74 68 56 48 45 29 19 39 42 19 30 83 89 95 105 114
151 138 110 109 117 119 117 115 112 110 112 108 98 89 86 90 89 84 76 67 61 54 34 16 28 43 47 44 47 56 63 66 66 63 61 58 54 52 53 54 53 48 40 34 30 28 28 32 32 28 27 33 41 43 42 45 50 48 48 55 57 52 60 76 83 86 85 81 80 82 80 75 71 64 59 62 54 43 51 58 47 38 62 82 90 90 95
118 110 108 110 113 111 111 113 114 112 107 103 100 96 93 95 97 97 94 86 78 70 60 58 56 53 51 55 61 65 67 67 64 62 60 57 54 52 51 52 53 49 38 32 29 27 27 29 28 26 28 35 40 41 41 46 53 54 50 51 51 43 41 53 63 74 81 81 78 77 73 69 71 71 67 69 71 66 66 71 70 61 62 75 87 93 98
110 104 105 107 108 108 106 108 112 109 101 98 100 100 103 105 103 102 102 96 88 83 71 69 69 64 67 72 72 69 67 63 58 54 53 52 51 51 53 54 54 52 45 38 34 31 29 27 25 26 32 37 38 37 35 34 39 44 41 38 37 32 29 37 46 56 69 74 74 76 74 68 71 77 76 73 76 80 82 82 82 82 82 84 92 104 115
110 109 111 112 113 113 108 103 103 101 97 96 97 97 99 97 95 100 108 107 97 84 74 76 79 75 74 73 69 67 64 60 54 49 46 46 47 50 54 56 54 51 47 42 39 37 32 26 24 26 31 35 36 36 36 33 32 36 36 29 28 27 24 28 36 45 58 66 69 73 78 75 70 74 82 86 87 90 94 95 96 98 103 107 114 123 133
89 94 98 98 101 106 107 104 99 94 90 87 84 85 87 86 89 99 103 98 89 81 81 84 83 79 77 72 67 65 64 60 54 49 45 44 46 49 52 54 53 51 48 44 41 37 31 26 23 22 24 27 29 29 31 31 30 33 33 25 21 27 25 23 30 41 49 60 69 75 77 74 69 67 72 80 86 91 96 102 106 109 111 116 123 130 137
71 75 74 71 70 78 89 95 94 91 91 88 81 79 80 84 90 92 90 90 94 93 91 88 84 80 78 75 70 67 65 64 62 57 49 48 48 48 48 48 46 44 42 40 36 33 30 27 23 18 16 20 22 22 22 22 20 23 25 19 15 28 35 30 33 47 51 53 62 71 73 73 77 81 79 76 80 87 91 95 101 107 114 121 125 125 128
70 73 73 72 69 70 75 81 84 87 88 88 87 88 85 80 81 84 88 91 91 89 86 83 79 76 73 70 68 68 66 65 64 58 51 50 51 50 49 46 39 35 34 31 28 27 28 26 21 15 11 9 10 13 15 13 8 9 12 12 11 22 42 48 51 53 54 53 57 66 75 83 87 94 99 97 94 95 97 99 100 106 117 127 132 130 132
65 68 71 71 68 67 67 71 82 89 88 85 84 85 82 79 78 78 79 80 80 80 80 78 76 75 73 70 70 68 66 64 62 59 55 53 52 51 47 41 34 32 28 17 15 20 25 24 20 19 16 11 6 5 8 8 6 2 2 5 5 6 16 40 56 57 54 59 71 78 90 101 103 104 114 123 125 123 122 119 117 117 126 137 141 139 138
60 62 64 64 66 66 65 65 71 77 78 78 76 73 73 76 76 72 69 68 69 72 75 75 76 76 74 70 66 62 58 58 60 58 55 54 53 51 47 37 30 27 19 14 19 24 25 24 23 25 25 22 18 15 13 12 10 6 357 353 355 358 2 11 28 41 50 68 96 108 118 130 133 135 139 144 147 150 149 146 142 139 143 149 152 149 145
54 55 56 57 59 62 63 62 60 58 61 66 68 68 71 74 74 71 65 59 59 65 70 70 71 71 69 65 62 55 53 55 57 56 55 54 54 54 49 39 32 29 27 29 33 33 28 26 29 29 27 27 27 25 23 21 19 17 11 359 351 351 356 360 2 8 21 36 45 62 150 162 159 160 163 165 165 165 163 160 158 155 155 156 158 157 153
52 54 59 61 59 58 62 64 61 61 65 67 67 68 74 78 78 74 67 59 61 68 72 71 70 68 63 61 61 55 53 54 55 55 55 54 52 50 45 34 29 30 33 36 37 36 32 31 32 30 29 31 31 29 29 32 32 30 28 21 9 1 360 3 6 6 6 7 1 347 313 248 231 217 202 192 185 178 172 168 166 166 164 164 164 163 163
51 50 56 63 65 64 65 67 67 69 74 76 76 77 79 80 78 74 70 67 68 71 71 71 71 69 64 63 62 57 56 58 57 55 55 52 46 44 41 26 21 26 34 39 39 37 36 35 33 31 33 38 38 35 36 40 41 41 40 38 34 30 24 21 20 17 12 7 0 352 339 297 266 254 237 222 218 212 196 179 173 172 172 171 170 168 168
52 52 52 54 56 55 56 58 60 61 62 67 71 74 76 77 77 76 73 71 70 68 66 66 67 66 64 63 61 56 54 57 58 57 56 53 47 44 37 23 22 28 38 43 41 38 37 36 33 31 37 44 45 42 43 45 45 46 46 44 42 40 38 34 31 28 23 17 6 353 341 322 306 298 275 234 223 217 204 196 194 191 184 178 174 171 170
49 51 51 49 50 52 54 57 60 58 52 52 60 67 71 72 72 71 68 64 62 61 60 59 59 59 59 59 58 52 48 49 54 57 56 53 49 46 40 31 29 34 40 44 42 39 38 37 35 35 42 50 52 49 48 48 47 46 46 45 43 41 40 38 36 34 31 27 19 6 353 342 333 327 305 235 217 209 193 187 190 192 186 181 179 177 176
51 55 58 56 53 54 55 55 57 60 56 51 53 58 62 63 64 66 66 63 58 57 57 56 55 56 58 58 58 54 48 46 49 53 53 50 45 41 38 37 38 39 42 46 46 42 40 40 42 44 48 53 55 54 52 51 49 47 47 47 45 44 43 41 39 37 33 29 26 21 12 3 359 358 355 322 203 183 174 184 195 192 181 177 184 185 178
50 52 57 58 55 52 54 56 59 63 64 59 55 54 57 61 62 63 65 64 59 56 57 57 55 55 59 63 66 66 62 58 55 54 54 51 36 31 36 42 46 46 47 49 49 46 44 46 49 50 51 52 54 55 54 52 50 49 49 48 46 44 43 41 39 38 36 33 31 29 24 18 15 14 16 26 58 135 165 180 193 189 178 177 186 188 180
48 48 50 53 50 48 52 61 64 63 62 60 55 51 54 60 61 61 62 64 62 58 58 58 56 55 56 60 64 65 65 63 59 57 58 61 56 46 47 52 54 54 53 53 50 47 48 51 53 54 54 55 55 55 54 53 52 51 50 48 46 44 43 41 39 38 38 38 38 38 37 36 34 29 28 35 46 66 123 146 147 156 171 180 184 181 176
47 46 45 46 48 50 54 59 61 59 57 58 56 52 55 60 63 63 64 65 65 62 60 59 57 55 54 55 55 54 55 57 55 52 53 59 62 58 56 57 59 59 59 57 53 52 54 56 57 57 57 57 57 55 54 53 54 53 51 50 49 47 45 44 42 40 40 40 41 43 45 48 50 49 47 47 50 50 49 57 75 98 129 166 168 157 152
48 46 43 43 47 50 52 54 55 53 51 55 61 63 64 65 64 62 62 64 64 61 58 56 54 52 53 54 54 53 54 57 53 44 44 53 61 61 58 57 58 59 60 59 58 57 57 57 57 57 56 56 56 55 54 53 53 52 51 51 50 50 49 48 47 45 44 43 43 44 45 46 49 52 54 54 55 56 54 52 56 65 71 78 97 102 98
50 49 48 46 46 47 49 51 50 46 47 53 56 61 66 66 60 53 51 57 60 59 55 52 50 48 49 51 53 54 57 60 59 53 52 57 61 62 62 62 61 60 60 60 59 57 56 55 55 55 55 55 55 54 54 54 54 53 52 52 51 51 51 51 51 50 49 48 48 48 47 47 48 50 52 53 54 56 58 58 58 59 61 63 71 79 83
47 48 47 45 44 46 49 50 48 48 51 54 55 57 61 63 58 47 43 52 59 58 55 52 49 45 46 49 51 52 56 60 61 61 62 63 61 61 64 66 65 64 63 62 60 59 58 57 56 55 55 56 56 55 54 54 54 54 54 54 54 53 53 52 52 51 52 52 52 52 51 51 51 51 51 51 51 52 55 57 59 61 64 64 65 68 72
45 45 45 48 52 55 57 58 59 61 62 63 63 62 62 64 62 52 47 50 55 55 54 52 48 43 43 47 48 49 52 56 58 59 61 62 62 62 64 66 67 67 66 64 62 61 60 60 59 58 58 58 58 57 57 57 57 57 57 56 56 56 55 53 52 52 52 52 54 55 54 54 54 54 55 55 54 54 55 56 57 58 60 62 64 67 70
44 44 46 49 53 56 57 57 59 62 65 67 68 67 67 67 65 57 49 48 50 52 54 53 48 43 42 44 46 47 49 52 54 55 56 57 58 60 61 61 62 63 62 62 62 63 64 64 64 64 62 61 61 60 59 59 59 60 59 59 59 59 58 56 55 54 53 53 54 55 56 57 57 58 59 60 60 59 59 60 60 60 61 62 64 66 68